Regional Weather Roundup
Issued by NWS

Home | Current Version | Previous Version | Graphics & Text | Print | Product List | Glossary On
Versions: 1 2 3 4 5 6 7 8 9 10 11 12 13 14 15 16 17 18 19 20 21 22 23 24 25 26 27 28 29 30 31 32 33 34 35 36 37 38 39 40 41 42 43 44 45 46 47 48 49 50
530
ASUS45 KTFX 261410
RWRMT
MONTANA REGIONAL WEATHER ROUNDUP
NATIONAL WEATHER SERVICE GREAT FALLS MT
800 AM MDT TUE JUL 26 2016

NOTE: "FAIR" INDICATES FEW OR NO CLOUDS BELOW 12000 FEET WITH NO
SIGNIFICANT WEATHER AND/OR OBSTRUCTIONS TO VISIBILITY.

MTZ001>007-043-261500-
WEST OF THE DIVIDE

CITY           SKY/WX    TMP DP  RH WIND       PRES   REMARKS
KALISPELL      MOSUNNY   67  55  65 N8        30.05R
MISSOULA       SUNNY     60  47  61 SE5       30.12R
BUTTE          SUNNY     49  40  71 E3        30.23R
MULLAN PASS    SUNNY     65  42  43 CALM      30.22S
ANACONDA         N/A     61  41  48 CALM      30.18S
DEER LODGE       N/A     55  48  76 CALM      30.21R
EUREKA           N/A     63  54  72 SE3       30.09R
HAMILTON         N/A     61  45  55 CALM      30.10F
LIBBY            N/A     63  50  63 CALM      30.06S
PLAINS           N/A     60  48  64 MISG      30.06S
$$

MTZ008-052>055-261500-
SOUTHWEST MONTANA

CITY           SKY/WX    TMP DP  RH WIND       PRES   REMARKS
BOZEMAN        SUNNY     63  48  58 CALM      30.17R
DILLON         SUNNY     58  43  57 SW8       30.19R
W YELLOWSTONE  CLOUDY    52  37  58 CALM      30.31R
ENNIS          SUNNY     61  39  44 SW3       30.24S
THREE FORKS      N/A     61  41  47 CALM      30.13R
TWIN BRIDGES     N/A     55  41  59 S3        30.16R
$$

MTZ009-010-012-014-046-048-049-054-261500-
EAST SLOPES AND CENTRAL MONTANA

CITY           SKY/WX    TMP DP  RH WIND       PRES   REMARKS
CUT BANK       SUNNY     64  55  72 SW9       30.11R
GREAT FALLS    SUNNY     65  50  58 SW6       30.10R
MALMSTROM AFB  SUNNY     65  51  60 SW3       30.10R
HELENA         SUNNY     62  50  64 CALM      30.13F
CHOTEAU          N/A     64  55  72 NW7       30.14F
CONRAD           N/A     64  61  90 CALM      30.12S
$$

MTZ011-013-016-021-045-047-050-051-261500-
NORTH CENTRAL MONTANA

CITY           SKY/WX    TMP DP  RH WIND       PRES   REMARKS
HAVRE          SUNNY     68  60  75 E15       30.06R
LEWISTOWN      SUNNY     65  51  60 SE5       30.12S
N BAR RANCH      N/A     64  50  59 W3        30.16R
CHINOOK          N/A     68  59  73 E8        30.06R
$$

MTZ017>020-022>027-061-062-261500-
NORTHEAST MONTANA

CITY           SKY/WX    TMP DP  RH WIND       PRES   REMARKS
GLASGOW        CLOUDY    68  60  75 E15       30.05R
JORDAN           N/A     70  59  68 SE3       30.04R
SIDNEY         LGT RAIN  66  63  90 SE5       30.06F
WOLF POINT     CLOUDY    69  61  75 E14       30.05S
PLENTYWOOD       N/A     68  57  68 NE7       30.10R
POPLAR           N/A     66  63  88 NE7       30.06S
SCOBEY           N/A     63  51  64 N6        30.08S
$$

MTZ028>42-056>058-261500-
SOUTHCENTRAL AND SOUTHEAST MONTANA

CITY           SKY/WX    TMP DP  RH WIND       PRES   REMARKS
BAKER          CLOUDY    63  32  31 NE24      30.04F
BILLINGS       MOSUNNY   69  50  50 N3        30.09R
LIVINGSTON     SUNNY     63  47  55 W6        30.15R
MILES CITY     CLOUDY    69  57  65 E12       30.06R
EKALAKA          N/A     62  57  83 SE7       30.03F
FORSYTH          N/A     70  61  73 E9        30.06R
LAUREL           N/A     66  50  56 NE1       30.08R
ROUNDUP          N/A     65  52  62 CALM      30.00S
$$

REGIONAL REPORTS...DAKOTAS

CITY           SKY/WX    TMP DP  RH WIND       PRES   REMARKS
WILLISTON      CLOUDY    67  60  78 NE7       30.07S
MINOT          SUNNY     73  64  73 W5        30.04R
DICKINSON      CLOUDY    66  63  90 NW8       30.09R
BEACH          LGT RAIN  63  63 100 NE9       30.12F
CROSBY           N/A     66  64  94 E6        30.10R
WATFORD CITY     N/A    N/A N/A N/A MISG        N/A
BISMARCK       MOSUNNY   73  67  81 NE10      29.97S
GRAND FORKS    PTSUNNY   75  65  70 CALM      29.96R
FARGO          LGT RAIN  71  66  84 S9        29.94S
BUFFALO SD       N/A     66  61  84 E24       29.99F
RAPID CITY     CLOUDY    66  59  78 N18       30.06R THUNDER
$$

REGIONAL REPORTS...WYOMING/IDAHO/WASHINGTON

CITY           SKY/WX    TMP DP  RH WIND       PRES   REMARKS
GILLETTE       SUNNY     67  56  67 N8        30.11F
SHERIDAN       SUNNY     70  49  47 SE3       30.12R
BUFFALO WY     SUNNY     71  47  42 NW9       30.19R
CODY           SUNNY     70  41  35 S5        30.17S
YELLOWSTONE LA   N/A     50  40  68 CALM      30.38R
IDAHO FALLS    SUNNY     57  45  64 N6        30.15R
SALMON         SUNNY     55  43  62 CALM      30.15S
BOISE          SUNNY     72  35  25 S7        29.99R
SPOKANE        MOSUNNY   67  49  52 S7        30.02R
$$

REGIONAL REPORTS...ALBERTA

CITY           SKY/WX    TMP DP  RH WIND       PRES   REMARKS
EDMONTON       SUNNY     64  55  72 S10       30.05F
CALGARY        MOSUNNY   59  54  82 NW3       30.09S
LETHBRIDGE     MOSUNNY   63  55  77 W3        30.07R
MEDICINE HAT   PTSUNNY   66  59  77 N7        30.05R
WATERTON GATE    N/A     59  54  82 SW6         N/A
CARDSTON         N/A     64  57  77 S5          N/A
MILK RIVER       N/A     66  55  68 CALM        N/A
$$

REGIONAL REPORTS...SASKATCHEWAN

CITY           SKY/WX    TMP DP  RH WIND       PRES   REMARKS
SWIFT CURRENT  CLOUDY    61  57  88 SE6       30.11R
REGINA         MOSUNNY   68  55  64 SE5       30.09S
SASKATOON      PTSUNNY   63  55  77 NE3       30.12S
CYPRESS HILLS    N/A     61  55  82 S6          N/A
VAL MARIE        N/A     66  55  68 E12         N/A
ROCKGLEN         N/A     61  57  88 NE2         N/A
ASSINIBOIA       N/A     61  55  82 S2          N/A
$$




USA.gov is the U.S. government's official web portal to all federal, state and local government web resources and services.